H1 CPF 2 NER 2024 7 9 9 191 01 glonass134 H2 1407501 9134 40315 2024 7 9 0 0 0 2024 7 12 23 45 0 900 1 1 0 0 0 1 H9 10 0 60500 0.00000 0 -12495385.891 17818608.432 -13209797.021 10 0 60500 900.00000 0 -11952137.880 16113622.474 -15675404.248 10 0 60500 1800.00000 0 -11471238.321 14095484.194 -17834820.212 10 0 60500 2700.00000 0 -11098501.504 11806288.333 -19645990.290 10 0 60500 3600.00000 0 -10871941.563 9297765.423 -21073726.023 10 0 60500 4500.00000 0 -10820053.303 6629332.775 -22090387.960 10 0 60500 5400.00000 0 -10960517.642 3865832.178 -22676413.924 10 0 60500 6300.00000 0 -11299385.914 1075050.266 -22820683.391 10 0 60500 7200.00000 0 -11830776.283 -1674873.855 -22520712.340 10 0 60500 8100.00000 0 -12537093.393 -4318045.110 -21782676.579 10 0 60500 9000.00000 0 -13389760.007 -6793305.179 -20621265.083 10 0 60500 9900.00000 0 -14350427.751 -9046518.622 -19059368.183 10 0 60500 10800.00000 0 -15372614.098 -11032559.093 -17127608.566 10 0 60500 11700.00000 0 -16403695.208 -12716915.456 -14863725.828 10 0 60500 12600.00000 0 -17387169.756 -14076853.907 -12311827.874 10 0 60500 13500.00000 0 -18265098.122 -15102091.066 -9521524.678 10 0 60500 14400.00000 0 -18980614.579 -15794953.363 -6546961.731 10 0 60500 15300.00000 0 -19480407.571 -16170019.299 -3445772.125 10 0 60500 16200.00000 0 -19717065.032 -16253262.399 -277967.332 10 0 60500 17100.00000 0 -19651187.619 -16080732.922 2895212.490 10 0 60500 18000.00000 0 -19253182.628 -15696835.095 6012467.307 10 0 60500 18900.00000 0 -18504664.649 -15152272.758 9013603.831 10 0 60500 19800.00000 0 -17399405.217 -14501749.583 11840678.872 10 0 60500 20700.00000 0 -15943792.161 -13801519.613 14439098.979 10 0 60500 21600.00000 0 -14156779.179 -13106889.737 16758656.837 10 0 60500 22500.00000 0 -12069326.806 -12469777.404 18754486.113 10 0 60500 23400.00000 0 -9723356.407 -11936424.576 20387917.767 10 0 60500 24300.00000 0 -7170258.433 -11545362.547 21627222.542 10 0 60500 25200.00000 0 -4469014.169 -11325712.168 22448226.068 10 0 60500 26100.00000 0 -1684005.962 -11295890.610 22834784.990 10 0 60500 27000.00000 0 1117396.274 -11462779.448 22779114.590 10 0 60500 27900.00000 0 3867375.000 -11821390.254 22281960.689 10 0 60500 28800.00000 0 6500228.400 -12355043.699 21352610.985 10 0 60500 29700.00000 0 8954852.474 -13036057.047 20008743.662 10 0 60500 30600.00000 0 11177039.715 -13826913.863 18276113.851 10 0 60500 31500.00000 0 13121498.857 -14681869.286 16188081.569 10 0 60500 32400.00000 0 14753510.987 -15548925.536 13784987.871 10 0 60500 33300.00000 0 16050151.717 -16372096.001 11113389.186 10 0 60500 34200.00000 0 17001026.785 -17093863.059 8225163.100 10 0 60500 35100.00000 0 17608488.692 -17657725.659 5176502.002 10 0 60500 36000.00000 0 17887323.953 -18010727.753 2026813.931 10 0 60500 36900.00000 0 17863923.233 -18105858.631 -1162447.341 10 0 60500 37800.00000 0 17574969.209 -17904220.925 -4328998.905 10 0 60500 38700.00000 0 17065698.119 -17376871.589 -7410966.352 10 0 60500 39600.00000 0 16387809.850 -16506254.974 -10348115.953 10 0 60500 40500.00000 0 15597116.960 -15287164.756 -13083054.823 10 0 60500 41400.00000 0 14751034.562 -13727191.958 -15562373.218 10 0 60500 42300.00000 0 13906019.894 -11846638.813 -17737704.489 10 0 60500 43200.00000 0 13115072.400 -9677901.522 -19566680.356 10 0 60500 44100.00000 0 12425402.056 -7264348.030 -21013761.838 10 0 60500 45000.00000 0 11876365.916 -4658738.754 -22050929.271 10 0 60500 45900.00000 0 11497760.594 -1921257.614 -22658218.289 10 0 60500 46800.00000 0 11308542.490 882762.983 -22824092.316 10 0 60500 47700.00000 0 11316028.644 3685326.984 -22545645.692 10 0 60500 48600.00000 0 11515610.172 6418364.961 -21828635.331 10 0 60500 49500.00000 0 11890988.112 9016321.721 -20687342.231 10 0 60500 50400.00000 0 12414919.363 11418633.995 -19144267.545 10 0 60500 51300.00000 0 13050438.865 13571996.391 -17229670.998 10 0 60500 52200.00000 0 13752504.501 15432323.289 -14980962.280 10 0 60500 53100.00000 0 14469993.797 16966327.574 -12441958.587 10 0 60500 54000.00000 0 15147967.299 18152653.440 -9662023.715 10 0 60500 54900.00000 0 15730102.955 18982519.309 -6695105.972 10 0 60500 55800.00000 0 16161199.230 19459847.163 -3598693.779 10 0 60500 56700.00000 0 16389642.377 19600875.841 -432708.967 10 0 60500 57600.00000 0 16369735.207 19433276.895 2741641.397 10 0 60500 58500.00000 0 16063790.788 18994811.783 5863033.362 10 0 60500 59400.00000 0 15443904.418 18331587.661 8871193.273 10 0 60500 60300.00000 0 14493330.562 17495985.118 11708042.713 10 0 60500 61200.00000 0 13207407.647 16544344.201 14318800.721 10 0 60500 62100.00000 0 11593992.006 15534504.669 16653023.690 10 0 60500 63000.00000 0 9673382.096 14523302.067 18665564.597 10 0 60500 63900.00000 0 7477734.711 13564122.874 20317434.485 10 0 60500 64800.00000 0 5049995.362 12704619.570 21576550.833 10 0 60500 65700.00000 0 2442384.553 11984680.003 22418359.166 10 0 60500 66600.00000 0 -285500.185 11434735.355 22826316.184 10 0 60500 67500.00000 0 -3068890.988 11074477.405 22792224.822 10 0 60500 68400.00000 0 -5840276.650 10912039.439 22316413.869 10 0 60500 69300.00000 0 -8531951.933 10943676.388 21407757.206 10 0 60500 70200.00000 0 -11078585.545 11153959.460 20083530.357 10 0 60500 71100.00000 0 -13419701.523 11516479.293 18369104.808 10 0 60500 72000.00000 0 -15501971.353 11995030.411 16297483.550 10 0 60500 72900.00000 0 -17281221.062 12545229.251 13908684.440 10 0 60500 73800.00000 0 -18724068.594 13116499.270 11248981.178 10 0 60500 74700.00000 0 -19809121.446 13654340.340 8370015.010 10 0 60500 75600.00000 0 -20527682.696 14102786.631 5327793.399 10 0 60500 76500.00000 0 -20883934.084 14406948.251 2181594.882 10 0 60500 77400.00000 0 -20894587.081 14515527.305 -1007197.977 10 0 60500 78300.00000 0 -20588015.909 14383199.430 -4176313.548 10 0 60500 79200.00000 0 -20002909.059 13972757.002 -7263828.409 10 0 60500 80100.00000 0 -19186497.036 13256920.201 -10209400.447 10 0 60500 81000.00000 0 -18192432.769 12219736.318 -12955471.208 10 0 60500 81900.00000 0 -17078416.374 10857505.650 -15448411.610 10 0 60500 82800.00000 0 -15903667.115 9179192.960 -17639586.413 10 0 60500 83700.00000 0 -14726351.858 7206306.094 -19486315.048 10 0 60500 84600.00000 0 -13601080.808 4972246.458 -20952708.976 10 0 60500 85500.00000 0 -12576577.866 2521159.047 -22010368.863 10 0 60501 0.00000 0 -11693624.800 -93668.654 -22638928.255 10 0 60501 900.00000 0 -10983365.442 -2811792.125 -22826434.345 10 0 60501 1800.00000 0 -10466041.585 -5567891.926 -22569559.086 10 0 60501 2700.00000 0 -10150210.563 -8294260.879 -21873639.450 10 0 60501 3600.00000 0 -10032476.322 -10923388.663 -20752547.065 10 0 60501 4500.00000 0 -10097742.150 -13390537.580 -19228392.200 10 0 60501 5400.00000 0 -10319971.656 -15636202.764 -17331069.654 10 0 60501 6300.00000 0 -10663423.352 -17608355.905 -15097657.051 10 0 60501 7200.00000 0 -11084304.543 -19264381.105 -12571678.590 10 0 60501 8100.00000 0 -11532773.174 -20572624.848 -9802249.538 10 0 60501 9000.00000 0 -11955202.235 -21513498.355 -6843118.670 10 0 60501 9900.00000 0 -12296610.974 -22080089.340 -3751627.422 10 0 60501 10800.00000 0 -12503160.766 -22278260.481 -587605.740 10 0 60501 11700.00000 0 -12524611.295 -22126233.006 2587774.594 10 0 60501 12600.00000 0 -12316634.818 -21653674.732 5713167.853 10 0 60501 13500.00000 0 -11842892.359 -20900332.021 8728222.111 10 0 60501 14400.00000 0 -11076785.759 -19914263.398 11574725.787 10 0 60501 15300.00000 0 -10002812.838 -18749748.576 14197712.394 10 0 60501 16200.00000 0 -8617469.127 -17464959.475 16546503.912 10 0 60501 17100.00000 0 -6929658.052 -16119489.339 18575674.345 10 0 60501 18000.00000 0 -4960591.266 -14771841.535 20245916.319 10 0 60501 18900.00000 0 -2743181.398 -13476981.298 21524795.283 10 0 60501 19800.00000 0 -320949.933 -12284051.074 22387377.584 10 0 60501 20700.00000 0 2253507.384 -11234343.727 22816720.591 10 0 60501 21600.00000 0 4920437.190 -10359617.588 22804215.175 10 0 60501 22500.00000 0 7615150.972 -9680823.734 22349773.057 10 0 60501 23400.00000 0 10270464.131 -9207299.365 21461853.969 10 0 60501 24300.00000 0 12819252.940 -8936462.306 20157330.161 10 0 60501 25200.00000 0 15197024.987 -8854021.111 18461188.579 10 0 60501 26100.00000 0 17344397.143 -8934693.951 16406074.016 10 0 60501 27000.00000 0 19209377.912 -9143407.992 14031679.664 10 0 60501 27900.00000 0 20749358.200 -9436930.424 11383994.719 10 0 60501 28800.00000 0 21932725.830 -9765863.463 8514421.986 10 0 60501 29700.00000 0 22740034.363 -10076919.445 5478781.582 10 0 60501 30600.00000 0 23164675.208 -10315379.269 2336219.845 10 0 60501 31500.00000 0 23213022.977 -10427628.755 -851954.802 10 0 60501 32400.00000 0 22904046.632 -10363663.299 -4023485.062 10 0 60501 33300.00000 0 22268402.206 -10079451.936 -7116401.571 10 0 60501 34200.00000 0 21347045.493 -9539057.576 -10070256.815 10 0 60501 35100.00000 0 20189424.277 -8716420.509 -12827329.582 10 0 60501 36000.00000 0 18851328.050 -7596726.886 -15333774.006 10 0 60501 36900.00000 0 17392488.188 -6177302.050 -17540688.528 10 0 60501 37800.00000 0 15874032.192 -4467989.389 -19405082.244 10 0 60501 38700.00000 0 14355901.609 -2490997.944 -20890718.679 10 0 60501 39600.00000 0 12894344.327 -280225.083 -21968820.108 10 0 60501 40500.00000 0 11539587.991 2119916.767 -22618618.966 10 0 60501 41400.00000 0 10333792.783 4656119.199 -22827746.531 10 0 60501 42300.00000 0 9309369.085 7268173.800 -22592452.673 10 0 60501 43200.00000 0 8487729.246 9891260.503 -21917654.184 10 0 60501 44100.00000 0 7878523.680 12458432.051 -20816812.711 10 0 60501 45000.00000 0 7479390.585 14903190.581 -19311646.657 10 0 60501 45900.00000 0 7276226.732 17162049.276 -17431684.555 10 0 60501 46800.00000 0 7243964.803 19176973.253 -15213670.276 10 0 60501 47700.00000 0 7347821.730 20897599.562 -12700832.992 10 0 60501 48600.00000 0 7544963.103 22283145.881 -9942037.107 10 0 60501 49500.00000 0 7786511.807 23303930.823 -6990829.226 10 0 60501 50400.00000 0 8019815.228 23942445.135 -3904400.920 10 0 60501 51300.00000 0 8190875.202 24193931.763 -742487.185 10 0 60501 52200.00000 0 8246838.635 24066453.030 2433778.651 10 0 60501 53100.00000 0 8138444.698 23580444.126 5563032.262 10 0 60501 54000.00000 0 7822326.682 22767773.032 8584846.558 10 0 60501 54900.00000 0 7263072.840 21670346.899 11440879.730 10 0 60501 55800.00000 0 6434960.603 20338323.146 14075982.484 10 0 60501 56700.00000 0 5323291.941 18827999.349 16439244.845 10 0 60501 57600.00000 0 3925273.892 17199468.782 18484963.994 10 0 60501 58500.00000 0 2250406.649 15514137.805 20173515.974 10 0 60501 59400.00000 0 320361.484 13832206.799 21472115.692 10 0 60501 60300.00000 0 -1831648.684 12210217.841 22355451.426 10 0 60501 61200.00000 0 -4161982.701 10698769.773 22806181.913 10 0 60501 62100.00000 0 -6618125.524 9340494.736 22815286.203 10 0 60501 63000.00000 0 -9140622.356 8168379.971 22382258.711 10 0 60501 63900.00000 0 -11665315.430 7204504.987 21515144.247 10 0 60501 64800.00000 0 -14125793.444 6459247.503 20230410.471 10 0 60501 65700.00000 0 -16455954.026 5930992.607 18552657.938 10 0 60501 66600.00000 0 -18592573.977 5606358.903 16514170.892 10 0 60501 67500.00000 0 -20477780.685 5460933.842 14154315.072 10 0 60501 68400.00000 0 -22061321.131 5460488.918 11518792.049 10 0 60501 69300.00000 0 -23302532.369 5562624.725 8658762.836 10 0 60501 70200.00000 0 -24171929.092 5718777.029 5629856.753 10 0 60501 71100.00000 0 -24652339.546 5876498.848 2491084.476 10 0 60501 72000.00000 0 -24739539.852 5981920.933 -696323.067 10 0 60501 72900.00000 0 -24442358.214 5982284.555 -3870126.125 10 0 60501 73800.00000 0 -23782243.322 5828436.724 -6968312.402 10 0 60501 74700.00000 0 -22792314.639 5477179.117 -9930331.762 10 0 60501 75600.00000 0 -21515934.955 4893368.012 -12698302.741 10 0 60501 76500.00000 0 -20004866.528 4051673.340 -15218164.878 10 0 60501 77400.00000 0 -18317090.316 2937919.799 -17440752.112 10 0 60501 78300.00000 0 -16514382.379 1549951.433 -19322764.584 10 0 60501 79200.00000 0 -14659751.687 -102018.081 -20827618.782 10 0 60501 80100.00000 0 -12814849.209 -1995584.622 -21926158.970 10 0 60501 81000.00000 0 -11037458.596 -4096854.568 -22597216.307 10 0 60501 81900.00000 0 -9379174.578 -6361637.313 -22828005.621 10 0 60501 82800.00000 0 -7883366.345 -8737078.277 -22614353.519 10 0 60501 83700.00000 0 -6583510.186 -11163662.921 -21960755.100 10 0 60501 84600.00000 0 -5501959.329 -13577506.978 -20880260.165 10 0 60501 85500.00000 0 -4649199.876 -15912836.560 -19394193.105 10 0 60502 0.00000 0 -4023620.895 -18104554.303 -17531714.017 10 0 60502 900.00000 0 -3611804.657 -20090786.077 -15329230.197 10 0 60502 1800.00000 0 -3389322.265 -21815300.161 -12829673.397 10 0 60502 2700.00000 0 -3321997.203 -23229703.496 -10081654.611 10 0 60502 3600.00000 0 -3367582.094 -24295322.460 -7138515.804 10 0 60502 4500.00000 0 -3477775.990 -24984693.209 -4057296.315 10 0 60502 5400.00000 0 -3600496.382 -25282601.594 -897633.942 10 0 60502 6300.00000 0 -3682309.950 -25186631.543 2279378.554 10 0 60502 7200.00000 0 -3670920.081 -24707200.990 5412360.248 10 0 60502 8100.00000 0 -3517607.259 -23867085.361 8440810.791 10 0 60502 9000.00000 0 -3179520.686 -22700449.408 11306259.953 10 0 60502 9900.00000 0 -2621725.882 -21251428.002 13953377.346 10 0 60502 10800.00000 0 -1818923.069 -19572314.594 16331022.623 10 0 60502 11700.00000 0 -756764.609 -17721431.781 18393217.571 10 0 60502 12600.00000 0 567283.973 -15760771.069 20100022.867 10 0 60502 13500.00000 0 2143576.462 -13753498.222 21418303.851 10 0 60502 14400.00000 0 3950429.072 -11761425.949 22322371.430 10 0 60502 15300.00000 0 5954770.783 -9842557.215 22794486.110 10 0 60502 16200.00000 0 8113276.830 -8048799.786 22825215.229 10 0 60502 17100.00000 0 10373941.580 -6423946.028 22413635.706 10 0 60502 18000.00000 0 12678028.698 -5002001.622 21567376.972 10 0 60502 18900.00000 0 14962320.640 -3805933.025 20302501.389 10 0 60502 19800.00000 0 17161576.440 -2846886.683 18643222.170 10 0 60502 20700.00000 0 19211097.223 -2123913.886 16621461.818 10 0 60502 21600.00000 0 21049293.371 -1624214.218 14276257.200 10 0 60502 22500.00000 0 22620146.084 -1323888.893 11653020.577 10 0 60502 23400.00000 0 23875459.362 -1189173.523 8802669.228 10 0 60502 24300.00000 0 24776806.341 -1178099.098 5780639.462 10 0 60502 25200.00000 0 25297086.067 -1242511.149 2645803.834 10 0 60502 26100.00000 0 25421622.829 -1330360.963 -540686.902 10 0 60502 27000.00000 0 25148759.512 -1388170.345 -3716613.338 10 0 60502 27900.00000 0 24489918.093 -1363563.220 -6819923.094 10 0 60502 28800.00000 0 23469123.550 -1207754.007 -9789966.193 10 0 60502 29700.00000 0 22122010.879 -877884.192 -12568703.543 10 0 60502 30600.00000 0 20494357.535 -339105.061 -15101862.494 10 0 60502 31500.00000 0 18640204.365 433684.393 -17340014.616 10 0 60502 32400.00000 0 16619645.912 1454520.130 -19239552.957 10 0 60502 33300.00000 0 14496385.090 2725533.515 -20763548.552 10 0 60502 34200.00000 0 12335157.009 4236625.771 -21882468.972 10 0 60502 35100.00000 0 10199131.761 5965670.193 -22574745.135 10 0 60502 36000.00000 0 8147406.104 7879233.097 -22827176.191 10 0 60502 36900.00000 0 6232689.385 9933782.204 -22635165.935 10 0 60502 37800.00000 0 4499279.906 12077330.570 -22002787.894 10 0 60502 38700.00000 0 2981414.781 14251446.037 -20942679.786 10 0 60502 39600.00000 0 1702059.957 16393541.128 -19475771.376 10 0 60502 40500.00000 0 672187.960 18439347.080 -17630852.959 10 0 60502 41400.00000 0 -109429.857 20325468.616 -15443994.537 10 0 60502 42300.00000 0 -655911.379 21991913.221 -12957828.377 10 0 60502 43200.00000 0 -991448.625 23384490.409 -10220709.940 10 0 60502 44100.00000 0 -1150026.657 24456982.331 -7285774.098 10 0 60502 45000.00000 0 -1173732.696 25172996.994 -4209905.221 10 0 60502 45900.00000 0 -1110728.191 25507428.769 -1052640.953 10 0 60502 46800.00000 0 -1012970.020 25447467.333 2124969.625 10 0 60502 47700.00000 0 -933776.852 24993114.729 5261532.175 10 0 60502 48600.00000 0 -925342.641 24157190.499 8296476.257 10 0 60502 49500.00000 0 -1036300.973 22964825.619 11171206.305 10 0 60502 50400.00000 0 -1309441.591 21452466.644 13830213.766 10 0 60502 51300.00000 0 -1779674.064 19666431.255 16222130.640 10 0 60502 52200.00000 0 -2472323.346 17661074.297 18300705.792 10 0 60502 53100.00000 0 -3401828.498 15496639.116 20025686.721 10 0 60502 54000.00000 0 -4570899.582 13236881.539 21363591.062 10 0 60502 54900.00000 0 -5970169.252 10946563.062 22288353.857 10 0 60502 55800.00000 0 -7578355.605 8688915.210 22781838.475 10 0 60502 56700.00000 0 -9362932.168 6523178.443 22834201.184 10 0 60502 57600.00000 0 -11281280.252 4502316.295 22444101.533 10 0 60502 58500.00000 0 -13282278.957 2670998.822 21618753.156 10 0 60502 59400.00000 0 -15308269.839 1063938.928 20373812.104 10 0 60502 60300.00000 0 -17297317.228 -295348.846 18733102.651 10 0 60502 61200.00000 0 -19185672.103 -1395314.380 16728183.394 10 0 60502 62100.00000 0 -20910338.018 -2236629.664 14397759.643 10 0 60502 63000.00000 0 -22411632.182 -2831925.917 11786951.237 10 0 60502 63900.00000 0 -23635633.842 -3205019.902 8946428.281 10 0 60502 64800.00000 0 -24536415.829 -3389661.043 5931430.430 10 0 60502 65700.00000 0 -25077963.367 -3427851.847 2800688.375 10 0 60502 66600.00000 0 -25235696.930 -3367812.903 -384731.012 10 0 60502 67500.00000 0 -24997532.357 -3261679.731 -3562632.286 10 0 60502 68400.00000 0 -24364431.238 -3163030.905 -6670926.416 10 0 60502 69300.00000 0 -23350416.502 -3124354.723 -9648866.797 10 0 60502 70200.00000 0 -21982051.513 -3194564.732 -12438259.643 10 0 60502 71100.00000 0 -20297404.341 -3416672.421 -14984622.706 10 0 60502 72000.00000 0 -18344541.486 -3825718.564 -17238267.377 10 0 60502 72900.00000 0 -16179615.688 -4447053.187 -19155281.324 10 0 60502 73800.00000 0 -13864629.939 -5295038.718 -20698391.291 10 0 60502 74700.00000 0 -11464973.498 -6372232.129 -21837688.708 10 0 60502 75600.00000 0 -9046834.957 -7669080.869 -22551204.191 10 0 60502 76500.00000 0 -6674601.993 -9164144.996 -22825320.527 10 0 60502 77400.00000 0 -4408357.241 -10824835.220 -22655017.454 10 0 60502 78300.00000 0 -2301574.692 -12608634.572 -22043945.194 10 0 60502 79200.00000 0 -399111.747 -14464751.060 -21004327.239 10 0 60502 80100.00000 0 1264421.227 -16336130.743 -19556696.275 10 0 60502 81000.00000 0 2665848.479 -18161745.920 -17729470.300 10 0 60502 81900.00000 0 3794127.275 -19879062.161 -15558378.859 10 0 60502 82800.00000 0 4650531.498 -21426580.919 -13085751.989 10 0 60502 83700.00000 0 5248316.369 -22746351.967 -10359686.716 10 0 60502 84600.00000 0 5611881.700 -23786351.656 -7433107.961 10 0 60502 85500.00000 0 5775471.644 -24502629.031 -4362742.360 10 0 60503 0.00000 0 5781467.742 -24861131.837 -1208025.051 10 0 60503 900.00000 0 5678348.421 -24839138.020 1970041.611 10 0 60503 1800.00000 0 5518401.424 -24426234.287 5110051.898 10 0 60503 2700.00000 0 5355285.322 -23624802.887 8151367.395 10 0 60503 3600.00000 0 5241541.999 -22449996.743 11035269.109 10 0 60503 4500.00000 0 5226163.743 -20929204.604 13706072.014 10 0 60503 5400.00000 0 5352316.025 -19101028.209 16112181.904 10 0 60503 6300.00000 0 5655310.578 -17013813.093 18207075.909 10 0 60503 7200.00000 0 6160913.166 -14723792.626 19950189.237 10 0 60503 8100.00000 0 6884056.913 -12292920.392 21307692.397 10 0 60503 9000.00000 0 7828015.646 -9786478.548 22253144.815 10 0 60503 9900.00000 0 8984073.282 -7270559.038 22768012.659 10 0 60503 10800.00000 0 10331705.155 -4809519.824 22842040.737 10 0 60503 11700.00000 0 11839266.479 -2463519.732 22473470.576 10 0 60503 12600.00000 0 13465162.262 -286232.823 21669099.092 10 0 60503 13500.00000 0 15159453.072 1677163.587 20444174.902 10 0 60503 14400.00000 0 16865832.610 3391643.673 18822132.028 10 0 60503 15300.00000 0 18523896.947 4833561.194 16834163.689 10 0 60503 16200.00000 0 20071612.318 5991398.646 14518642.002 10 0 60503 17100.00000 0 21447878.964 6866004.914 11920392.603 10 0 60503 18000.00000 0 22595083.364 7470310.052 9089836.475 10 0 60503 18900.00000 0 23461530.579 7828528.102 6082014.505 10 0 60503 19800.00000 0 24003652.508 7974880.851 2955513.271 10 0 60503 20700.00000 0 24187896.551 7951896.322 -228686.623 10 0 60503 21600.00000 0 23992212.342 7808354.696 -3408416.145 10 0 60503 22500.00000 0 23407071.114 7596970.036 -6521552.069 10 0 60503 23400.00000 0 22435972.339 7371908.239 -9507253.532 10 0 60503 24300.00000 0 21095414.573 7186249.025 -12307174.287 10 0 60503 25200.00000 0 19414330.762 7089502.479 -14866624.513 10 0 60503 26100.00000 0 17433011.737 7125288.209 -17135657.223 10 0 60503 27000.00000 0 15201563.861 7329277.971 -19070056.276 10 0 60503 27900.00000 0 12777966.935 7727490.774 -20632205.482 10 0 60503 28800.00000 0 10225815.506 8335013.821 -21791821.316 10 0 60503 29700.00000 0 7611839.951 9155203.760 -22526535.084 10 0 60503 30600.00000 0 5003312.476 10179401.663 -22822314.020 10 0 60503 31500.00000 0 2465447.430 11387172.849 -22673714.397 10 0 60503 32400.00000 0 58904.676 12747060.057 -22083963.448 10 0 60503 33300.00000 0 -2162500.488 14217816.785 -21064870.443 10 0 60503 34200.00000 0 -4153786.804 15750067.344 -19636570.632 10 0 60503 35100.00000 0 -5880415.305 17288322.612 -17827108.975 10 0 60503 36000.00000 0 -7319452.240 18773265.967 -15671873.441 10 0 60503 36900.00000 0 -8460241.523 20144213.028 -13212890.333 10 0 60503 37800.00000 0 -9304562.245 21341642.221 -10497996.402 10 0 60503 38700.00000 0 -9866268.186 22309690.737 -7579904.479 10 0 60503 39600.00000 0 -10170427.613 22998512.398 -4515181.067 10 0 60503 40500.00000 0 -10252002.091 23366400.119 -1363155.625 10 0 60503 41400.00000 0 -10154121.660 23381585.711 1815217.847 10 0 60503 42300.00000 0 -9926029.994 23023643.281 4958525.663 10 0 60503 43200.00000 0 -9620786.257 22284438.963 8006064.357 10 0 60503 44100.00000 0 -9292819.929 21168588.247 10898994.452 10 0 60503 45000.00000 0 -8995440.538 19693402.319 13581457.334 10 0 60503 45900.00000 0 -8778405.739 17888325.447 16001635.393 10 0 60503 46800.00000 0 -8685648.664 15793886.012 18112736.672 10 0 60503 47700.00000 0 -8753258.820 13460203.316 19873886.550 10 0 60503 48600.00000 0 -9007800.604 10945110.176 21250910.623 10 0 60503 49500.00000 0 -9465039.831 8311966.765 22216994.616 10 0 60503 50400.00000 0 -10129132.308 5627253.761 22753209.036 10 0 60503 51300.00000 0 -10992309.836 2958041.994 22848888.365 10 0 60503 52200.00000 0 -12035078.933 369441.105 22501856.736 10 0 60503 53100.00000 0 -13226926.620 -2077868.820 21718494.450 10 0 60503 54000.00000 0 -14527506.732 -4329921.476 20513642.210 10 0 60503 54900.00000 0 -15888260.103 -6341470.121 18910342.706 10 0 60503 55800.00000 0 -17254403.455 -8077631.274 16939422.109 10 0 60503 56700.00000 0 -18567205.795 -9515097.095 14638917.129 10 0 60503 57600.00000 0 -19766458.075 -10642864.642 12053356.483 10 0 60503 58500.00000 0 -20793032.737 -11462450.071 9232908.921 10 0 60503 59400.00000 0 -21591424.816 -11987577.501 6232413.150 10 0 60503 60300.00000 0 -22112166.037 -12243354.620 3110308.013 10 0 60503 61200.00000 0 -22314007.799 -12264969.351 -72515.873 10 0 60503 62100.00000 0 -22165778.180 -12095962.860 -3253919.615 10 0 60503 63000.00000 0 -21647831.629 -11786152.974 -6371749.465 10 0 60503 63900.00000 0 -20753027.393 -11389297.649 -9365073.852 10 0 60503 64800.00000 0 -19487193.101 -10960599.828 -12175397.412 10 0 60503 65700.00000 0 -17869052.350 -10554162.107 -14747825.838 10 0 60503 66600.00000 0 -15929618.598 -10220501.824 -17032156.499 10 0 60503 67500.00000 0 -13711080.897 -10004234.429 -18983871.730 10 0 60503 68400.00000 0 -11265229.096 -9942025.248 -20565014.163 10 0 60503 69300.00000 0 -8651485.833 -10060897.742 -21744926.444 10 0 60503 70200.00000 0 -5934629.351 -10376970.359 -22500841.053 10 0 60503 71100.00000 0 -3182303.804 -10894675.163 -22818309.484 10 0 60503 72000.00000 0 -462422.248 -11606490.291 -22691463.723 10 0 60503 72900.00000 0 2159428.756 -12493196.098 -22123106.641 10 0 60503 73800.00000 0 4622474.920 -13524642.396 -21124631.428 10 0 60503 74700.00000 0 6873027.765 -14660992.611 -19715773.656 10 0 60503 75600.00000 0 8866453.024 -15854390.757 -17924202.694 10 0 60503 76500.00000 0 10568754.423 -17050979.718 -15784962.134 10 0 60503 77400.00000 0 11957709.886 -18193185.018 -13339771.570 10 0 60503 78300.00000 0 13023516.196 -19222167.743 -10636204.354 10 0 60503 79200.00000 0 13768918.706 -20080343.753 -7726758.005 10 0 60503 80100.00000 0 14208824.002 -20713864.088 -4667835.638 10 0 60503 81000.00000 0 14369414.683 -21074953.592 -1518658.077 10 0 60503 81900.00000 0 14286805.659 -21124011.007 1659872.748 10 0 60503 82800.00000 0 14005299.936 -20831383.984 4806337.895 10 0 60503 83700.00000 0 13575317.890 -20178745.973 7859971.599 10 0 60503 84600.00000 0 13051087.013 -19160018.443 10761816.333 10 0 60503 85500.00000 0 12488188.543 -17781800.397 13455841.994 99